DW8201 Weather Reports


Display with metric or nautical units.
time (UTC)temp
F
wind
direction
speed
MPH
gust
MPH
rain 1hr
in
rain 24hr
in
rain mn
in
humidity
%
barometer
mb
20260504010130 53 168 0.0 0.0 0.00 0.17 0.01 95 1010.6
20260504005622 53 168 0.0 0.0 0.00 0.17 0.01 94 1010.7
20260504005112 53 168 0.0 0.0 0.00 0.17 0.01 94 1010.7
20260504004605 53 168 0.0 0.0 0.00 0.17 0.01 94 1010.5
20260504004348 53 168 0.0 0.0 0.00 0.17 0.01 94 1010.6
20260504004148 53 168 0.0 0.0 0.00 0.17 0.01 94 1010.5
20260504003340 54 168 0.0 0.0 0.00 0.17 0.01 94 1010.6
20260504002933 54 168 0.0 0.0 0.00 0.17 0.01 94 1010.5
20260504002125 54 168 0.0 0.0 0.00 0.17 0.01 95 1010.4
20260504001618 54 168 0.0 0.0 0.00 0.17 0.01 94 1010.5
20260504001109 54 168 0.0 0.0 0.01 0.17 0.01 94 1010.4
20260504000603 54 168 0.0 0.0 0.01 0.17 0.01 94 1010.4
20260504000058 54 168 0.0 0.0 0.01 0.17 0.01 95 1010.5
20260503235845 54 168 0.0 0.0 0.01 0.17 0.01 95 1010.6
20260503235036 55 168 0.0 0.0 0.01 0.17 0.01 95 1010.7
20260503234534 55 168 0.0 0.0 0.01 0.17 0.01 95 1010.6
20260503234125 55 168 0.0 0.0 0.01 0.17 0.01 95 1010.6
20260503233621 55 168 0.0 0.0 0.01 0.17 0.01 95 1010.6
20260503233112 55 168 0.0 1.0 0.01 0.17 0.01 94 1010.6
20260503232607 55 168 0.0 1.0 0.01 0.17 0.01 94 1010.6
20260503232059 55 168 0.0 1.0 0.01 0.17 0.01 94 1010.6
20260503231551 55 168 0.0 1.0 0.01 0.17 0.01 94 1010.6
20260503231045 55 168 0.0 2.0 0.00 0.17 0.00 94 1010.7
20260503230536 55 168 0.0 2.0 0.00 0.17 0.00 94 1010.7
20260503230032 55 168 0.0 2.0 0.00 0.17 0.00 94 1010.7
20260503225526 55 168 0.0 2.0 0.00 0.17 0.00 94 1010.7
20260503225018 55 160 0.0 2.0 0.00 0.17 0.00 94 1010.7
20260503224913 56 160 0.0 3.0 0.00 0.17 0.00 94 1010.6
20260503224408 56 160 0.0 3.0 0.00 0.17 0.00 94 1010.6
20260503223556 56 179 0.0 3.0 0.00 0.17 0.00 94 1010.5
20260503223048 56 166 0.0 2.0 0.00 0.17 0.00 94 1010.5
20260503222539 56 166 0.0 3.0 0.00 0.17 0.00 94 1010.5
20260503222033 56 144 0.0 3.0 0.00 0.17 0.00 94 1010.5
20260503221525 56 166 0.0 2.0 0.00 0.17 0.00 94 1010.5
20260503221020 56 187 0.0 0.0 0.00 0.17 0.00 94 1010.6
20260503220513 56 187 0.0 4.0 0.00 0.17 0.00 94 1010.6
20260503220008 56 167 0.0 4.0 0.00 0.17 0.00 94 1010.6
20260503215559 56 145 0.0 4.0 0.00 0.17 0.17 94 1010.6
20260503215051 56 151 1.0 4.0 0.00 0.17 0.17 94 1010.6
20260503214545 56 155 2.0 5.0 0.00 0.17 0.17 94 1010.7
20260503214038 57 179 2.0 5.0 0.00 0.17 0.17 94 1010.6
20260503213529 57 186 2.0 5.0 0.00 0.17 0.17 94 1010.6
20260503213019 57 175 1.0 4.0 0.00 0.17 0.17 94 1010.6
20260503212515 57 151 2.0 5.0 0.00 0.17 0.17 94 1010.6
20260503212006 57 181 1.0 4.0 0.00 0.17 0.17 94 1010.5
20260503211459 57 167 1.0 3.0 0.00 0.17 0.17 94 1010.5
20260503211051 57 145 0.0 0.0 0.00 0.17 0.17 94 1010.4
20260503210546 57 160 0.0 1.0 0.00 0.17 0.17 93 1010.5
20260503210053 57 160 0.0 3.0 0.01 0.17 0.17 93 1010.5
20260503205532 57 158 1.0 3.0 0.01 0.17 0.17 93 1010.5
20260503205025 57 189 0.0 3.0 0.01 0.17 0.17 93 1010.5
20260503204515 57 162 1.0 3.0 0.01 0.17 0.17 93 1010.5
20260503204010 57 162 0.0 3.0 0.01 0.17 0.17 93 1010.5
20260503203503 57 165 0.0 3.0 0.01 0.17 0.17 93 1010.6
20260503202954 57 141 1.0 3.0 0.01 0.17 0.17 93 1010.6
20260503202549 57 137 1.0 3.0 0.01 0.17 0.17 93 1010.6
20260503202041 58 162 1.0 3.0 0.01 0.17 0.17 93 1010.6
20260503201533 58 156 0.0 3.0 0.01 0.17 0.17 93 1010.7
20260503201024 58 184 1.0 4.0 0.01 0.17 0.17 93 1010.7
20260503200515 58 200 1.0 4.0 0.01 0.17 0.17 93 1010.8
20260503200010 58 222 1.0 3.0 0.00 0.17 0.16 93 1010.9
20260503195501 58 203 1.0 3.0 0.00 0.17 0.16 93 1010.8
20260503194952 58 183 2.0 5.0 0.00 0.17 0.16 92 1010.7
20260503194449 58 149 3.0 7.0 0.00 0.18 0.16 92 1010.7
20260503194042 58 221 2.0 7.0 0.00 0.19 0.16 92 1010.6
20260503193533 58 191 2.0 6.0 0.00 0.20 0.16 91 1010.6
20260503193026 58 212 2.0 5.0 0.00 0.21 0.16 91 1010.6
20260503192518 58 191 2.0 6.0 0.00 0.24 0.16 91 1010.6
20260503192011 58 215 3.0 6.0 0.00 0.28 0.16 91 1010.5
20260503191503 58 185 2.0 6.0 0.00 0.28 0.16 90 1010.5
20260503191258 59 201 2.0 6.0 0.00 0.28 0.16 90 1010.4
20260503190748 59 191 4.0 8.0 0.00 0.28 0.16 90 1010.4
20260503190142 59 183 4.0 8.0 0.00 0.28 0.16 89 1010.3
20260503190039 59 187 4.0 8.0 0.00 0.28 0.16 89 1010.3
20260503185433 59 198 4.0 9.0 0.00 0.28 0.16 88 1010.2
20260503184616 60 217 4.0 9.0 0.00 0.28 0.16 87 1010.2
20260503184108 60 212 6.0 13.0 0.00 0.28 0.16 87 1010.1
20260503183602 60 136 6.0 13.0 0.00 0.28 0.16 87 1010.1
20260503183404 60 174 5.0 13.0 0.00 0.28 0.16 87 1010.1
20260503182547 60 158 5.0 13.0 0.00 0.28 0.16 87 1010.0
20260503182040 60 197 5.0 10.0 0.00 0.28 0.16 87 1010.0
20260503181532 60 168 5.0 11.0 0.00 0.28 0.16 86 1009.9
20260503181119 60 166 5.0 16.0 0.00 0.28 0.16 86 1009.9
20260503180614 60 169 6.0 16.0 0.00 0.28 0.16 86 1009.8
20260503180113 60 193 6.0 16.0 0.00 0.28 0.16 86 1009.8
20260503175910 60 183 6.0 16.0 0.00 0.28 0.16 86 1009.9
20260503175054 60 181 5.0 11.0 0.00 0.28 0.16 86 1009.9
20260503174547 60 202 6.0 12.0 0.00 0.28 0.16 87 1009.8
20260503174039 61 168 6.0 12.0 0.00 0.28 0.16 87 1009.7
20260503173533 61 156 6.0 14.0 0.00 0.28 0.16 86 1009.7
20260503173128 61 181 7.0 16.0 0.01 0.28 0.16 86 1009.7
20260503173025 61 204 7.0 14.0 0.01 0.28 0.16 86 1009.7
20260503172106 61 172 6.0 16.0 0.01 0.28 0.16 86 1009.6
20260503171600 61 189 5.0 10.0 0.01 0.28 0.16 87 1009.6
20260503171055 61 214 5.0 9.0 0.01 0.28 0.16 88 1009.5
20260503170549 61 193 5.0 9.0 0.01 0.28 0.16 88 1009.5
20260503150956 59 138 5.0 11.0 0.02 0.27 0.14 93 1009.8
20260503150539 59 177 5.0 11.0 0.02 0.27 0.14 93 1009.8
20260503130929 58 201 4.0 9.0 0.05 0.23 0.10 92 1010.6
20260503130516 58 186 4.0 9.0 0.04 0.22 0.09 92 1010.6
20260503110402 63 170 3.0 8.0 0.01 0.13 0.01 84 1010.3
20260503090339 64 151 5.0 9.0 0.00 0.13 0.00 76 1010.0
20260503081325 64 227 4.0 8.0 0.00 0.13 0.00 82 1009.8
20260503080818 63 195 5.0 8.0 0.00 0.13 0.00 81 1009.7
20260503080311 63 161 6.0 9.0 0.00 0.13 0.00 82 1009.7
20260503071807 61 197 3.0 7.0 0.00 0.13 0.00 87 1009.6
20260503071355 61 167 3.0 7.0 0.00 0.13 0.00 88 1009.6
20260503070846 60 190 4.0 8.0 0.00 0.13 0.00 90 1009.7
20260503070338 60 162 4.0 8.0 0.00 0.13 0.00 91 1009.7
20260503060300 57 196 2.0 5.0 0.00 0.13 0.00 94 1009.7
20260503054732 57 179 1.0 5.0 0.00 0.13 0.00 95 1009.7
20260503054221 56 193 2.0 4.0 0.00 0.13 0.00 95 1009.7
20260503053921 56 163 2.0 4.0 0.00 0.13 0.00 95 1009.7
20260503052809 56 145 2.0 4.0 0.00 0.13 0.00 95 1009.8
20260503052300 56 158 1.0 4.0 0.00 0.13 0.00 95 1009.9
20260503051753 56 139 0.0 3.0 0.00 0.13 0.00 95 1009.8
20260503051345 56 153 0.0 3.0 0.00 0.13 0.00 95 1009.8
20260503050839 56 133 1.0 3.0 0.00 0.13 0.00 95 1009.8
20260503050331 56 135 1.0 3.0 0.00 0.13 0.00 95 1009.8
20260503045827 56 187 1.0 4.0 0.00 0.13 0.00 95 1009.8
20260503045321 56 147 0.0 4.0 0.00 0.13 0.00 95 1009.8
20260503044814 56 180 0.0 3.0 0.00 0.13 0.00 95 1009.7
20260503044304 56 121 0.0 3.0 0.00 0.13 0.00 95 1009.8
20260503043759 55 90 0.0 2.0 0.00 0.13 0.00 95 1009.8
20260503043250 55 90 0.0 3.0 0.00 0.13 0.00 95 1009.8
20260503042745 55 90 0.0 3.0 0.00 0.13 0.00 94 1009.7
20260503042338 55 90 0.0 0.0 0.00 0.13 0.00 94 1009.8
20260503041829 55 90 0.0 0.0 0.00 0.13 0.00 94 1009.9
20260503041325 55 90 0.0 0.0 0.00 0.13 0.00 94 1009.9
20260503040820 55 90 0.0 0.0 0.00 0.13 0.00 94 1009.9
20260503040312 55 90 0.0 0.0 0.00 0.13 0.00 94 1009.9
20260503035807 56 90 0.0 0.0 0.00 0.13 0.00 94 1010.0
20260503035304 56 90 0.0 0.0 0.00 0.13 0.00 94 1010.0
20260503034755 56 90 0.0 0.0 0.00 0.13 0.00 94 1010.0
20260503034246 56 90 0.0 0.0 0.00 0.13 0.00 94 1010.0
20260503033737 56 90 0.0 1.0 0.00 0.13 0.00 94 1009.9
20260503033730 56 90 0.0 2.0 0.00 0.13 0.00 94 1010.1
20260503032821 56 90 0.0 2.0 0.00 0.13 0.00 94 1010.0
20260503032314 56 90 0.0 2.0 0.00 0.13 0.00 94 1010.0
20260503031810 56 90 0.0 2.0 0.00 0.13 0.00 94 1010.1
20260503031303 56 106 0.0 1.0 0.00 0.13 0.00 93 1010.1
20260503030755 56 106 0.0 3.0 0.00 0.13 0.00 94 1010.2
20260503030247 56 118 0.0 3.0 0.00 0.13 0.00 94 1010.2
20260503025742 56 59 0.0 0.0 0.00 0.13 0.00 93 1010.2
20260503025234 56 59 0.0 0.0 0.00 0.13 0.00 93 1010.2
20260503024825 56 59 0.0 0.0 0.00 0.13 0.00 93 1010.3
20260503024319 56 59 0.0 0.0 0.00 0.13 0.00 93 1010.2
20260503023826 56 59 0.0 0.0 0.00 0.13 0.00 93 1010.3
20260503023305 56 59 0.0 0.0 0.00 0.13 0.00 93 1010.3
20260503023158 56 59 0.0 0.0 0.00 0.13 0.00 93 1010.4
20260503022251 56 59 0.0 0.0 0.00 0.13 0.00 93 1010.4
20260503021742 57 59 0.0 0.0 0.00 0.13 0.00 93 1010.3
20260503021234 57 59 0.0 0.0 0.00 0.13 0.00 93 1010.4
20260503020728 57 306 0.0 0.0 0.00 0.13 0.00 93 1010.5
20260503020220 57 306 0.0 0.0 0.00 0.13 0.00 92 1010.6
20260503015811 57 306 0.0 0.0 0.00 0.13 0.00 92 1010.7
20260503015307 57 306 0.0 0.0 0.00 0.13 0.00 92 1010.6
20260503014801 57 306 0.0 0.0 0.00 0.13 0.00 92 1010.6
20260503014252 57 306 0.0 0.0 0.00 0.13 0.00 91 1010.7
20260503014142 57 306 0.0 0.0 0.00 0.13 0.00 92 1010.8
20260503013238 57 306 0.0 0.0 0.00 0.13 0.00 91 1010.8
20260503012733 57 306 0.0 0.0 0.00 0.13 0.00 91 1010.9
20260503012627 57 306 0.0 0.0 0.00 0.13 0.00 91 1010.9
20260503012116 57 306 0.0 0.0 0.00 0.13 0.00 91 1011.0
20260503011215 58 306 0.0 0.0 0.00 0.13 0.00 91 1011.0
20260503010710 58 300 0.0 0.0 0.00 0.13 0.00 91 1011.0
20260503010307 58 102 0.0 0.0 0.00 0.13 0.00 91 1011.0